Погода в Ладе

Россия / Республика Мордовия     54°35′03″N   45°25′23″E
темп.,
°C
ветер,
м/с
пор.,
м/с
влажн.,
%
обл.,
%
осадки,
мм/ч
давл.,
гПа
погр.,
м
15 апреля, чт
чт1500:00+11юв33835 0.0 102126
03:00+9юв22835 0.0 102112
06:00+8ююв22835 0.0 102020
09:00+14ююв346097 0.0 1020318
12:00+17ююв2243100 0.0 10181015
15:00+18в113591 0.0 10181401
18:00+16всв22445 0.0 101814
21:00+13всв22540 0.0 101815
16 апреля, пт
пт1600:00+11всв336285 0.0 101817
03:00+9св337360 0.0 101943
06:00+7св5109883 0.0 1019255
09:00+9св578999 0.0 1021358
12:00+15всв566256 0.0 1020864
15:00+16всв665629 0.0 10201161
18:00+14св596559 0.0 1021417
21:00+10св6127995 0.0 1022356
17 апреля, сб
сб1700:00+8св512835 0.0 1023324
03:00+6всв512855 0.0 1024306
06:00+5всв512895 0.0 1024363
09:00+9всв79685 0.0 1025617
12:00+13всв785375 0.0 1024971
15:00+14всв78415 0.0 10241213
18:00+12всв69425 0.0 1024551
21:00+8всв511530 0.0 1025296
18 апреля, вс
вс1800:00+6св512600 0.0 1025312
03:00+4св412670 0.0 1026285
06:00+4св411710 0.0 1027303
09:00+8св695339 0.0 1026902
12:00+11св794194 0.0 10261496
15:00+12св7941100 0.0 10261815
18:00+11св7104883 0.0 1026889
21:00+8св7135954 0.0 1028690
19 апреля, пн
пн1900:00+5св5116482 0.0 1030538
03:00+3всв4962100 0.0 1031373
06:00+2всв5106287 0.0 1033541
09:00+5всв793787 0.0 10341279
12:00+7всв78315 0.0 10341634
15:00+8всв67305 0.0 10341775
18:00+7в56360 0.0 10351497
21:00+3в49470 0.0 1037253